Regional Weather Roundup
Issued by NWS

Home | Current Version | Previous Version | Graphics & Text | Print | Product List | Glossary On
Versions: 1 2 3 4 5 6 7 8 9 10 11 12 13 14 15 16 17 18 19 20 21 22 23 24 25 26 27 28 29 30 31 32 33 34 35 36 37 38 39 40 41 42 43 44 45 46 47 48 49 50
000
ASUS43 KDMX 272007
RWRIA

WEATHER ROUNDUP FOR IOWA
NATIONAL WEATHER SERVICE DES MOINES IA
200 PM CST THU NOV 27 2014

NOTE: "FAIR" INDICATES FEW OR NO CLOUDS BELOW 12,000 FEET WITH NO
SIGNIFICANT WEATHER AND/OR OBSTRUCTIONS TO VISIBILITY.

* - THESE STATIONS ARE NOT NWS STATIONS...THUS NOT UNDER NWS
QUALITY CONTROL.  THEY ALSO DO NOT REPORT WEATHER SUCH
AS PRECIPITATION OR FOG.

IAZ001>003-012>014-020>022-031>034-043>046-272100-
   NORTHWEST IOWA

CITY           SKY/WX    TMP DP  RH WIND       PRES   REMARKS
CARROLL *      CLOUDY     9  -2  61 CALM      30.43F
CHEROKEE *     CLOUDY     9   1  72 S5        30.41F WCI   0
DENISON *      CLOUDY    14   1  57 SE6       30.39F WCI   5
LE MARS *      CLOUDY    12   1  62 SE8       30.39F WCI   1
ORANGE CITY *  PTSUNNY   10   0  61 SE5       30.37F WCI   2
SHELDON *      CLOUDY     7  -4  61 S8        30.37F WCI  -6
SIOUX CITY     CLOUDY    17   2  51 SE12      30.39F WCI   4
SPENCER        MOSUNNY    5  -4  66 S5        30.41F WCI  -4
STORM LAKE *   CLOUDY     9  -2  61 SE5       30.40F WCI   0
$$

IAZ055>058-069>071-079>083-090>094-272100-
   SOUTHWEST IOWA

CITY           SKY/WX    TMP DP  RH WIND       PRES   REMARKS
ATLANTIC *     CLOUDY    16  -2  45 CALM      30.43F
AUDUBON *      MOSUNNY   12  -2  52 CALM      30.42F
CLARINDA *     CLOUDY    21  10  63 VRB5      30.46F WCI  15
COUNCIL BLFS * PTSUNNY   19   5  53 SE9       30.38F WCI   9
CRESTON *      CLOUDY    16   3  57 CALM      30.43F
HARLAN  *      CLOUDY    14   0  52 SE6       30.45F WCI   5
LAMONI         CLOUDY    20   9  62 VRB3      30.44F
RED OAK *      CLOUDY    19   7  58 E5        30.44F WCI  13
SHENANDOAH *   MOSUNNY   23  10  58 VRB5      30.45F WCI  17
$$

IAZ047>049-059>061-072>074-084-272100-
   CENTRAL IOWA

CITY           SKY/WX    TMP DP  RH WIND       PRES   REMARKS
AMES           SUNNY      6  -2  69 W5        30.47F WCI  -3
ANKENY *       SUNNY      9  -2  61 CALM      30.48F
CHARITON *     SUNNY     16   3  57 N6        30.46F WCI   7
DES MOINES     PTSUNNY   14  -2  49 CALM      30.47F
GRINNELL*      SUNNY      9   1  72 NW9       30.46F WCI  -5
KNOXVILLE *    SUNNY     12  -2  52 VRB3      30.47F
MARSHALLTOWN   SUNNY      6  -1  73 NW8       30.46F WCI  -7
PELLA *        SUNNY     14   1  57 NW8       30.50F WCI   3
PERRY *          N/A      9   1  72 CALM      30.46F
$$

IAZ004>006-015-016-023>025-035-036-272100-
   NORTH CENTRAL IOWA

CITY           SKY/WX    TMP DP  RH WIND       PRES   REMARKS
ALGONA *       SUNNY      1  -6  71 CALM      30.45F
CLARION *      SUNNY      0  -8  71 NW5       30.45F WCI -10
ESTHERVILLE    SUNNY      1  -4  79 S3        30.42F
FORT DODGE *   SUNNY      3  -6  66 CALM      30.45F
MASON CITY     SUNNY      4  -3  73 NW6       30.44F WCI  -7
FOREST CITY *  SUNNY      3  -4  72 CALM      30.43F
IOWA FALLS *     N/A      5  -2  72 W6        30.45F WCI  -6
$$

IAZ007>011-017>019-026>030-037>042-050>054-066-272100-
   NORTHEAST IOWA

CITY           SKY/WX    TMP DP  RH WIND       PRES   REMARKS
CEDAR RAPIDS   SUNNY     14   5  67 W13       30.43F WCI   0
CHARLES CITY * SUNNY      7  -4  61 NW6       30.45R WCI  -3
CLINTON *      MOSUNNY   19  10  68 NW10      30.43S WCI   8
DECORAH *      SUNNY     10  -4  52 N9        30.39F WCI  -2
DUBUQUE        SUNNY     17   3  54 NW12      30.38S WCI   4
MONTICELLO *   SUNNY     18   5  57 W12       30.41F WCI   5
OELWEIN *      SUNNY     10   0  61 NW9       30.43F WCI  -2
WATERLOO       SUNNY      9  -1  64 NW9       30.46F WCI  -4
$$

IAZ064-065-067-068-078-272100-
   EAST CENTRAL IOWA

CITY           SKY/WX    TMP DP  RH WIND       PRES   REMARKS
DAVENPORT      SUNNY     19   7  59 W16       30.42S WCI   4
IOWA CITY      SUNNY     16   5  62 NW10      30.48S WCI   4
MT. PLEASANT * SUNNY     18   5  57 NW5       30.47F WCI  11
MUSCATINE *    SUNNY     18   7  62 W14       30.47F WCI   4
QUAD CITIES    SUNNY     21   6  52 NW14      30.43S WCI   8
$$

IAZ062-063-075>077-085>089-095>099-272100-
   SOUTHEAST IOWA

CITY           SKY/WX    TMP DP  RH WIND       PRES   REMARKS
BURLINGTON     SUNNY     17   4  56 NW13      30.47S WCI   4
FAIRFIELD *    SUNNY     12   1  62 NW10      30.48F WCI  -1
FORT MADISON * SUNNY     18  10  73 NW8       30.48S WCI   7
KEOKUK *       SUNNY     21  12  68 N8        30.46F WCI  12
OSKALOOSA *      N/A     10   1  67 NW8       30.49F WCI  -1
CENTERVILLE *  SUNNY     19   9  63 W6        30.47F WCI  11
OTTUMWA        SUNNY     14   0  53 N10       30.48F WCI   1
WASHINGTON *   SUNNY     10   5  79 W12       30.47F WCI  -4
$$

ABBREVIATIONS USED IN REMARKS
   TC - TEMPERATURES IN CELSIUS
  WCI - WIND CHILL INDEX
   HX - HEAT INDEX
  VSB - VISIBILITY
$$




USA.gov is the U.S. government's official web portal to all federal, state and local government web resources and services.